Location: Montreal
(45.5087°N, 73.5540°W)
Time: 08:26:14
(UTC-04:00)

Amateur Radio Satellites - All Passes

Search period start: 25 May 2017 07:56
Search period end: 26 May 2017 07:56
Location: Montreal, 45.5087°N, 73.5540°W

Satellite Date Start Highest point End Downlink Frequencies (MHz)
Time Altitude Azimuth
M-CUBED/EXP-1 PRIME 25 May 08:01:22 08:05:36 73° 70° (ENE) 08:09:34 437.505
AO-7 25 May 08:04:42 08:07:09 12° 326° (NW) 08:09:35 .
SEEDS 25 May 08:05:49 08:09:37 31° 96° (E) 08:13:21 437.485
STRAND 1 25 May 08:07:38 08:12:21 39° 262° (W) 08:17:09 437.568
CUTE-I 25 May 08:16:28 08:21:23 39° 293° (WNW) 08:26:17 437.470
XW-2A 25 May 08:16:56 08:20:20 56° 100° (E) 08:23:44 145.665 - 145.685
XW-2D 25 May 08:28:53 08:30:58 14° 297° (WNW) 08:33:02 145.860 - 145.880
Oscar 11 25 May 08:28:53 08:29:56 11° 87° (E) 08:30:59 .
SO-50 25 May 08:29:27 08:33:31 34° 243° (WSW) 08:37:36 436.795
XW-2B 25 May 08:37:12 08:38:47 12° 298° (WNW) 08:40:22 145.730 - 145.750
UNISAT 6 25 May 08:45:52 08:48:20 15° 61° (ENE) 08:50:50 437.425
CUTE 1.7 + AOD 2 25 May 08:48:39 08:52:52 59° 287° (WNW) 08:57:03 437.475
AO-73 25 May 08:51:12 08:54:58 25° 94° (E) 08:58:42 145.935
FO-29 25 May 09:03:29 09:07:45 27° 63° (ENE) 09:12:09 435.910
ZACube-1 25 May 09:03:51 09:08:04 36° 97° (E) 09:12:18 437.345
BEESAT 2 25 May 09:06:16 09:08:07 13° 328° (NNW) 09:09:58 435.950
CUBEBUG 2 25 May 09:08:50 09:13:23 75° 285° (WNW) 09:18:03 437.445
AAUSAT CUBESAT 2 25 May 09:10:21 09:14:31 76° 101° (E) 09:18:38 437.432
PRISM 25 May 09:22:12 09:26:07 43° 71° (ENE) 09:30:03 437.425
UWE-3 25 May 09:22:41 09:27:15 86° 288° (WNW) 09:31:54 435.000/436.395/437.385
HO-68 25 May 09:28:19 09:35:15 52° 295° (WNW) 09:42:09 435.675
NO-84 25 May 09:33:51 09:38:07 52° 137° (SE) 09:42:13 435.350 FM
M-CUBED/EXP-1 PRIME 25 May 09:38:58 09:40:21 11° 264° (W) 09:41:44 437.505
SEEDS 25 May 09:41:40 09:45:11 26° 293° (WNW) 09:48:40 437.485
DELFI C3 25 May 09:44:59 09:47:48 19° 92° (E) 09:50:36 145.870
TIGRISAT 25 May 09:49:06 09:53:16 57° 73° (ENE) 09:57:33 435.000
XW-2A 25 May 09:51:43 09:52:37 11° 297° (WNW) 09:53:31 145.665 - 145.685
RS-15 25 May 09:52:55 10:04:41 46° 34° (NE) 10:15:58 29.354- 29.394
Oscar 11 25 May 10:02:15 10:06:38 79° 285° (WNW) 10:10:58 .
AIST 2D 25 May 10:08:20 10:09:25 11° 63° (ENE) 10:10:30 435.315
EO-88 25 May 10:12:02 10:15:11 25° 96° (E) 10:18:16 145.990 - 145.960
UNISAT 6 25 May 10:20:20 10:24:33 62° 259° (W) 10:28:52 437.425
NANOSAT C BR1 25 May 10:23:03 10:23:41 10° 58° (ENE) 10:24:19 145.865
POLYITAN 1 25 May 10:24:57 10:26:36 12° 59° (ENE) 10:28:15 437.675
AO-73 25 May 10:27:05 10:31:15 37° 291° (WNW) 10:35:26 145.935
QB50P2 25 May 10:32:33 10:35:02 16° 62° (ENE) 10:37:34 145.880/145.840
DUCHIFAT 1 25 May 10:33:34 10:35:11 12° 60° (ENE) 10:36:50 145.980
YUBILEINY 25 May 10:39:27 10:44:53 17° 55° (NE) 10:50:16 435.215
ZACube-1 25 May 10:40:25 10:44:11 26° 294° (WNW) 10:47:58 437.345
FO-29 25 May 10:47:49 10:52:42 41° 262° (W) 10:57:43 435.910
AAUSAT CUBESAT 2 25 May 10:47:50 10:49:22 12° 300° (WNW) 10:50:54 437.432
CUBEBUG 2 25 May 10:49:13 10:49:14 10° 302° (WNW) 10:49:15 437.445
PRISM 25 May 10:58:44 11:01:36 18° 267° (W) 11:04:27 437.425
UWE-3 25 May 11:01:29 11:03:01 12° 301° (WNW) 11:04:33 435.000/436.395/437.385
LO-87 25 May 11:01:31 11:03:18 13° 91° (E) 11:05:05 145.935 - 145.965
EO-79 25 May 11:08:48 11:12:31 32° 68° (ENE) 11:16:16 145.935-145.965
NO-84 25 May 11:11:48 11:15:52 38° 335° (NNW) 11:19:43 435.350 FM
HO-68 25 May 11:18:43 11:21:22 12° 316° (NW) 11:24:02 435.675
DELFI C3 25 May 11:19:05 11:22:43 37° 290° (WNW) 11:26:20 145.870
TIGRISAT 25 May 11:28:02 11:30:23 14° 271° (W) 11:32:44 435.000
AIST 2D 25 May 11:38:41 11:42:08 57° 259° (W) 11:45:39 435.315
ESTCUBE 1 25 May 11:39:15 11:42:55 24° 94° (E) 11:46:33 437.505/2401.250
EO-88 25 May 11:45:46 11:48:45 24° 292° (WNW) 11:51:45 145.990 - 145.960
NANOSAT C BR1 25 May 11:54:31 11:58:42 89° 78° (ENE) 12:02:55 145.865
POLYITAN 1 25 May 11:57:36 12:01:47 77° 258° (WSW) 12:06:00 437.675
Oscar 19 25 May 11:59:59 12:03:10 17° 58° (ENE) 12:06:20 437.125/150
RS-15 25 May 12:06:00 12:18:09 73° 241° (WSW) 12:29:41 29.354- 29.394
DUCHIFAT 1 25 May 12:06:07 12:10:16 76° 258° (WSW) 12:14:28 145.980
QB50P2 25 May 12:06:16 12:10:24 57° 260° (W) 12:14:34 145.880/145.840
AO-85 25 May 12:27:09 12:30:04 19° 39° (NE) 12:33:02 145.980
BUGSAT 1 25 May 12:30:33 12:34:31 62° 73° (ENE) 12:38:29 437.445
LO-87 25 May 12:33:35 12:36:58 42° 288° (WNW) 12:40:20 145.935 - 145.965
YUBILEINY 25 May 12:34:39 12:43:31 72° 79° (ENE) 12:52:20 435.215
VELOX 1 25 May 12:41:36 12:45:21 27° 95° (E) 12:49:05 145.980
EO-79 25 May 12:44:52 12:48:19 24° 266° (W) 12:51:47 145.935-145.965
SPROUT 25 May 12:47:04 12:50:55 32° 96° (E) 12:54:44 437.525
BEESAT 3 25 May 12:50:47 12:52:48 13° 33° (NNE) 12:54:48 437.485
NO-84 25 May 12:51:05 12:54:18 21° 355° (N) 12:57:21 435.350 FM
Gurwin Techsat 1B 25 May 13:03:10 13:07:55 34° 66° (ENE) 13:12:41 435.225
O/OREOS (USA 219) 25 May 13:15:37 13:19:31 27° 55° (NE) 13:23:21 437.305
ESTCUBE 1 25 May 13:15:38 13:19:50 37° 291° (WNW) 13:23:58 437.505/2401.250
UKube-1 25 May 13:18:02 13:20:49 17° 92° (E) 13:23:34 .
DX 1 25 May 13:22:02 13:25:42 26° 95° (E) 13:29:19 434.975-435.025
AO-7 25 May 13:27:36 13:33:41 23° 48° (NE) 13:39:47 .
Oscar 19 25 May 13:36:38 13:41:50 80° 257° (WSW) 13:47:05 437.125/150
50 SAT 25 May 13:58:05 14:01:29 72° 285° (WNW) 14:04:51 437.505
BEESAT 2 25 May 14:04:02 14:07:13 21° 40° (NE) 14:10:23 435.950
AO-85 25 May 14:06:49 14:10:47 62° 238° (WSW) 14:14:57 145.980
BUGSAT 1 25 May 14:08:50 14:10:18 12° 271° (W) 14:11:45 437.445
VELOX 1 25 May 14:17:55 14:21:48 31° 293° (WNW) 14:25:40 145.980
RS-15 25 May 14:20:57 14:28:15 19° 264° (W) 14:35:24 29.354- 29.394
SPROUT 25 May 14:23:09 14:26:42 26° 294° (WNW) 14:30:16 437.525
BEESAT 3 25 May 14:27:05 14:31:07 71° 54° (NE) 14:35:06 437.485
NO-84 25 May 14:29:26 14:32:52 27° 17° (NNE) 14:36:03 435.350 FM
YUBILEINY 25 May 14:32:30 14:39:29 27° 280° (W) 14:46:29 435.215
ITAMSAT 1 25 May 14:35:41 14:40:21 35° 66° (ENE) 14:45:03 435.822/435.867
Gurwin Techsat 1B 25 May 14:43:00 14:47:49 35° 263° (W) 14:52:41 435.225
UKube-1 25 May 14:52:57 14:57:07 50° 289° (WNW) 15:01:17 .
O/OREOS (USA 219) 25 May 14:54:50 14:59:00 36° 254° (WSW) 15:03:05 437.305
ITUPSAT 1 25 May 14:56:27 14:59:41 18° 91° (E) 15:02:55 437.325
DX 1 25 May 14:58:02 15:01:54 32° 292° (WNW) 15:05:44 434.975-435.025
AO-7 25 May 15:17:04 15:25:21 84° 68° (ENE) 15:33:43 .
Oscar 19 25 May 15:21:09 15:21:58 10° 274° (W) 15:22:48 437.125/150
MOZHAYETS 4 25 May 15:25:01 15:28:25 20° 92° (E) 15:31:48
BEESAT 25 May 15:30:04 15:34:31 37° 98° (E) 15:38:57 436.000
BEESAT 2 25 May 15:41:17 15:45:16 54° 240° (WSW) 15:49:12 435.950
BEESAT 3 25 May 16:06:26 16:08:08 12° 251° (WSW) 16:09:50 437.485
NO-84 25 May 16:07:02 16:10:50 81° 218° (SW) 16:14:17 435.350 FM
CUBESAT XI-V 25 May 16:09:57 16:10:20 10° 86° (E) 16:10:44 437.345
ITAMSAT 1 25 May 16:15:13 16:19:49 32° 264° (W) 16:24:28 435.822/435.867
CUTE-I 25 May 16:25:41 16:26:38 10° 52° (NE) 16:27:34 437.470
KKS-1 25 May 16:28:54 16:30:56 13° 90° (E) 16:32:56 437.445
ITUPSAT 1 25 May 16:33:08 16:37:53 58° 289° (WNW) 16:42:35 437.325
MOZHAYETS 4 25 May 17:01:20 17:05:49 48° 289° (WNW) 17:10:17
LilacSat-2 25 May 17:02:07 17:04:26 16° 64° (ENE) 17:06:46 437.200
STARS 25 May 17:03:30 17:05:28 13° 89° (E) 17:07:28 437.465
BEESAT 25 May 17:08:06 17:12:09 28° 295° (WNW) 17:16:12 436.000
AO-7 25 May 17:12:56 17:19:04 22° 269° (W) 17:25:16 .
DOVE 4 25 May 17:17:41 17:22:02 42° 71° (ENE) 17:26:10 437.250
XW-2D 25 May 17:36:37 17:40:05 34° 70° (ENE) 17:43:35 145.860 - 145.880
CUBESAT XI-V 25 May 17:43:42 17:48:24 90° 104° (ESE) 17:53:02 437.345
XW-2B 25 May 17:44:23 17:47:58 40° 71° (ENE) 17:51:36 145.730 - 145.750
NO-84 25 May 17:47:04 17:47:39 10° 237° (WSW) 17:48:13 435.350 FM
XW-2F 25 May 17:57:44 18:01:27 57° 74° (ENE) 18:05:14 145.980 - 146.000
XW-2C 25 May 17:57:47 18:01:32 60° 74° (ENE) 18:05:20 145.795 - 145.815
CUTE-I 25 May 18:00:25 18:05:38 63° 71° (ENE) 18:10:54 437.470
NUDT-PHONESAT 25 May 18:00:46 18:04:21 49° 73° (ENE) 18:07:59 437.300
KKS-1 25 May 18:03:32 18:07:57 69° 286° (WNW) 18:12:21 437.445
KAITUO 1B 25 May 18:07:25 18:11:08 61° 74° (ENE) 18:14:53 145.475/437.950
CUTE 1.7 + AOD 2 25 May 18:09:26 18:11:46 15° 61° (ENE) 18:14:08 437.475
HO-68 25 May 18:12:02 18:18:17 34° 59° (ENE) 18:24:34 435.675
LilacSat-2 25 May 18:34:38 18:38:20 46° 261° (W) 18:42:06 437.200
CUBEBUG 2 25 May 18:35:12 18:37:08 13° 60° (ENE) 18:39:03 437.445
STARS 25 May 18:37:55 18:42:17 68° 286° (WNW) 18:46:38 437.465
PCSat 25 May 18:47:21 18:51:15 20° 107° (ESE) 18:55:10 145.827
UWE-3 25 May 18:48:47 18:50:03 11° 59° (ENE) 18:51:21 435.000/436.395/437.385
XW-2A 25 May 18:50:32 18:53:21 26° 69° (ENE) 18:56:13 145.665 - 145.685
DOVE 4 25 May 18:56:25 18:59:53 21° 267° (W) 19:03:14 437.250
SEEDS 25 May 18:59:24 19:03:05 29° 68° (ENE) 19:06:47 437.485
XW-2D 25 May 19:11:37 19:14:23 19° 268° (W) 19:17:10 145.860 - 145.880
XW-2B 25 May 19:19:55 19:22:22 16° 269° (W) 19:24:48 145.730 - 145.750
CUBESAT XI-V 25 May 19:23:11 19:25:02 12° 302° (WNW) 19:26:54 437.345
Oscar 11 25 May 19:25:43 19:27:30 12° 59° (ENE) 19:29:18 .
XW-2F 25 May 19:34:32 19:35:58 12° 271° (W) 19:37:23 145.980 - 146.000
XW-2C 25 May 19:34:55 19:36:07 11° 271° (W) 19:37:20 145.795 - 145.815
NUDT-PHONESAT 25 May 19:36:48 19:38:33 13° 270° (W) 19:40:19 437.300
CUTE-I 25 May 19:42:28 19:46:08 19° 269° (W) 19:49:49 437.470
CUTE 1.7 + AOD 2 25 May 19:42:50 19:47:05 65° 259° (WSW) 19:51:23 437.475
KAITUO 1B 25 May 19:44:33 19:45:32 11° 271° (W) 19:46:31 145.475/437.950
AO-73 25 May 19:48:59 19:52:23 24° 66° (ENE) 19:55:52 145.935
HO-68 25 May 19:58:41 20:05:41 56° 259° (WSW) 20:12:47 435.675
ZACube-1 25 May 20:01:45 20:05:35 35° 69° (ENE) 20:09:31 437.345
AAUSAT CUBESAT 2 25 May 20:02:01 20:06:09 65° 75° (ENE) 20:10:20 437.432
CUBEBUG 2 25 May 20:09:02 20:13:10 70° 259° (W) 20:17:25 437.445
STRAND 1 25 May 20:15:14 20:20:20 60° 101° (ESE) 20:25:25 437.568
UWE-3 25 May 20:21:39 20:25:49 84° 256° (WSW) 20:30:08 435.000/436.395/437.385
XW-2A 25 May 20:23:38 20:26:07 19° 266° (W) 20:28:36 145.665 - 145.685
PCSat 25 May 20:28:44 20:34:08 66° 305° (NW) 20:39:34 145.827
DELFI C3 25 May 20:32:57 20:35:24 16° 63° (ENE) 20:37:52 145.870
SEEDS 25 May 20:35:04 20:38:43 28° 265° (W) 20:42:25 437.485
Tancredo 1 25 May 20:52:20 20:55:09 33° 141° (SE) 20:57:57 437.200
EO-88 25 May 20:52:32 20:54:56 17° 65° (ENE) 20:57:21 145.990 - 145.960
Oscar 11 25 May 20:58:39 21:03:00 80° 258° (WSW) 21:07:23 .
M-CUBED/EXP-1 PRIME 25 May 21:12:35 21:15:30 28° 102° (ESE) 21:18:22 437.505
ISS 25 May 21:13:00 21:16:02 35° 142° (SE) 21:19:05 437.550
AO-73 25 May 21:24:36 21:28:27 34° 264° (W) 21:32:25 145.935
ZACube-1 25 May 21:38:35 21:41:57 23° 267° (W) 21:45:25 437.345
AAUSAT CUBESAT 2 25 May 21:40:17 21:42:03 12° 271° (W) 21:43:49 437.432
TIGRISAT 25 May 21:40:24 21:41:40 11° 88° (E) 21:42:55 435.000
FO-29 25 May 21:52:39 21:57:44 24° 93° (E) 22:03:16 435.910
STRAND 1 25 May 21:55:20 21:59:05 21° 299° (WNW) 22:02:49 437.568
DELFI C3 25 May 22:05:55 22:09:48 49° 261° (W) 22:13:42 145.870
UNISAT 6 25 May 22:09:45 22:13:29 24° 94° (E) 22:17:15 437.425
PCSat 25 May 22:15:15 22:18:36 16° 327° (NNW) 22:21:58 145.827
EO-88 25 May 22:24:55 22:28:20 37° 262° (W) 22:31:48 145.990 - 145.960
Tancredo 1 25 May 22:27:54 22:30:51 43° 340° (NNW) 22:33:49 437.200
PRISM 25 May 22:36:12 22:40:09 50° 100° (E) 22:44:06 437.425
ESTCUBE 1 25 May 22:40:39 22:44:34 29° 67° (ENE) 22:48:30 437.505/2401.250
SO-50 25 May 22:45:06 22:49:26 43° 119° (ESE) 22:53:45 436.795
M-CUBED/EXP-1 PRIME 25 May 22:47:29 22:49:49 18° 300° (WNW) 22:52:06 437.505
ISS 25 May 22:49:17 22:52:29 45° 340° (NNW) 22:55:40 437.550
LO-87 25 May 23:11:12 23:14:44 80° 255° (WSW) 23:18:18 145.935 - 145.965
TIGRISAT 25 May 23:14:19 23:18:55 85° 281° (W) 23:23:35 435.000
FO-29 25 May 23:36:55 23:43:08 68° 288° (WNW) 23:50:11 435.910
NANOSAT C BR1 25 May 23:38:18 23:40:05 12° 89° (E) 23:41:51 145.865
VELOX 1 25 May 23:40:42 23:44:39 32° 68° (ENE) 23:48:35 145.980
POLYITAN 1 25 May 23:41:19 23:43:48 15° 91° (E) 23:46:15 437.675
SPROUT 25 May 23:42:24 23:46:09 32° 68° (ENE) 23:49:56 437.525
UNISAT 6 25 May 23:46:02 23:50:18 39° 290° (WNW) 23:54:37 437.425
YUBILEINY 25 May 23:46:35 23:51:18 16° 73° (ENE) 23:56:00 435.215
DUCHIFAT 1 25 May 23:49:02 23:51:24 15° 90° (E) 23:53:47 145.980
QB50P2 25 May 23:49:24 23:52:32 20° 93° (E) 23:55:39 145.880/145.840
Tancredo 1 26 May 00:04:29 00:07:06 25° 360° (N) 00:09:43 437.200
PRISM 26 May 00:12:31 00:15:04 16° 298° (WNW) 00:17:36 437.425
UKube-1 26 May 00:14:31 00:17:38 20° 63° (ENE) 00:20:46 .
ESTCUBE 1 26 May 00:17:15 00:21:18 32° 264° (W) 00:25:23 437.505/2401.250
DX 1 26 May 00:19:27 00:23:16 31° 67° (ENE) 00:27:06 434.975-435.025
SO-50 26 May 00:26:02 00:30:02 29° 318° (NW) 00:34:02 436.795
EO-79 26 May 00:26:13 00:30:18 43° 99° (E) 00:34:21 145.935-145.965
RS-15 26 May 00:26:19 00:32:05 15° 93° (E) 00:37:53 29.354- 29.394
ISS 26 May 00:26:37 00:29:30 27° 360° (N) 00:32:21 437.550
50 SAT 26 May 00:32:03 00:35:26 55° 73° (ENE) 00:38:49 437.505
AIST 2D 26 May 00:34:33 00:38:07 64° 284° (WNW) 00:41:37 435.315
TIGRISAT 26 May 00:53:22 00:54:53 12° 302° (WNW) 00:56:25 435.000
NANOSAT C BR1 26 May 01:12:01 01:16:14 67° 287° (WNW) 01:20:27 145.865
POLYITAN 1 26 May 01:15:43 01:19:55 55° 288° (WNW) 01:24:06 437.675
VELOX 1 26 May 01:17:21 01:21:06 27° 265° (W) 01:24:52 145.980
SPROUT 26 May 01:18:34 01:22:05 25° 266° (W) 01:25:37 437.525
Gurwin Techsat 1B 26 May 01:19:55 01:20:42 10° 86° (E) 01:21:29 435.225
DUCHIFAT 1 26 May 01:23:16 01:27:26 56° 287° (WNW) 01:31:34 145.980
FO-29 26 May 01:24:18 01:27:18 14° 306° (NW) 01:30:27 435.910
QB50P2 26 May 01:24:28 01:28:30 41° 290° (WNW) 01:32:31 145.880/145.840
YUBILEINY 26 May 01:37:49 01:46:29 76° 95° (E) 01:55:16 435.215
Tancredo 1 26 May 01:40:25 01:43:22 41° 19° (NNE) 01:46:18 437.200
BUGSAT 1 26 May 01:44:54 01:49:02 80° 101° (E) 01:53:13 437.445
Oscar 19 26 May 01:46:17 01:50:50 30° 95° (E) 01:55:20 437.125/150
UKube-1 26 May 01:49:14 01:53:22 45° 261° (W) 01:57:31 .
DX 1 26 May 01:55:42 01:59:26 28° 264° (W) 02:03:12 434.975-435.025
EO-79 26 May 02:02:40 02:05:46 20° 296° (WNW) 02:08:52 145.935-145.965
ISS 26 May 02:03:19 02:06:30 44° 20° (NNE) 02:09:40 437.550
ITUPSAT 1 26 May 02:05:00 02:08:59 27° 65° (ENE) 02:13:00 437.325
MOZHAYETS 4 26 May 02:28:51 02:32:35 25° 65° (ENE) 02:36:21
RS-15 26 May 02:30:00 02:41:50 63° 115° (ESE) 02:53:55 29.354- 29.394
BEESAT 26 May 02:38:19 02:42:57 55° 71° (ENE) 02:47:37 436.000
Gurwin Techsat 1B 26 May 02:56:09 03:01:31 78° 104° (ESE) 03:06:49 435.225
CUBESAT XI-V 26 May 03:13:59 03:16:37 15° 60° (ENE) 03:19:16 437.345
Tancredo 1 26 May 03:16:15 03:19:07 35° 217° (SW) 03:21:56 437.200
AO-7 26 May 03:17:04 03:23:29 24° 92° (E) 03:29:53 .
BUGSAT 1 26 May 03:22:28 03:23:48 11° 300° (WNW) 03:25:08 437.445
Oscar 19 26 May 03:25:28 03:30:12 38° 293° (WNW) 03:34:55 437.125/150
KKS-1 26 May 03:28:48 03:31:40 17° 61° (ENE) 03:34:32 437.445
O/OREOS (USA 219) 26 May 03:31:00 03:34:15 19° 101° (E) 03:37:31 437.305
PCSat 26 May 03:31:23 03:36:12 31° 45° (NE) 03:41:00 145.827
YUBILEINY 26 May 03:37:09 03:44:15 27° 297° (WNW) 03:51:25 435.215
ISS 26 May 03:39:55 03:42:58 36° 218° (SW) 03:45:59 437.550
ITUPSAT 1 26 May 03:42:14 03:46:40 38° 262° (W) 03:51:08 437.325
STARS 26 May 04:02:01 04:04:44 16° 61° (ENE) 04:07:28 437.465
MOZHAYETS 4 26 May 04:05:15 04:09:33 39° 263° (W) 04:13:55
BEESAT 26 May 04:17:49 04:21:04 18° 269° (W) 04:24:21 436.000
AO-85 26 May 04:24:06 04:27:17 21° 115° (ESE) 04:30:22 145.980
ITAMSAT 1 26 May 04:24:52 04:30:06 74° 104° (ESE) 04:35:18 435.822/435.867
Gurwin Techsat 1B 26 May 04:37:27 04:40:49 17° 302° (WNW) 04:44:11 435.225
RS-15 26 May 04:42:59 04:54:51 52° 321° (NW) 05:06:53 29.354- 29.394
CUBESAT XI-V 26 May 04:48:42 04:53:24 74° 258° (WSW) 04:58:08 437.345
KKS-1 26 May 05:03:26 05:07:48 57° 259° (W) 05:12:11 437.445
AO-7 26 May 05:08:44 05:17:08 82° 291° (WNW) 05:25:30 .
O/OREOS (USA 219) 26 May 05:08:49 05:13:17 49° 299° (WNW) 05:17:46 437.305
PCSat 26 May 05:14:35 05:19:50 50° 245° (WSW) 05:25:03 145.827
SO-50 26 May 05:34:34 05:37:20 16° 32° (NNE) 05:40:05 436.795
BEESAT 2 26 May 05:36:01 05:38:11 14° 110° (ESE) 05:40:22 435.950
STARS 26 May 05:36:21 05:40:38 58° 259° (W) 05:44:57 437.465
BEESAT 3 26 May 05:55:40 05:59:34 59° 121° (ESE) 06:03:32 437.485
STRAND 1 26 May 05:56:46 05:59:50 16° 58° (ENE) 06:02:55 437.568
AO-85 26 May 06:03:32 06:07:26 42° 312° (NW) 06:11:14 145.980
ITAMSAT 1 26 May 06:05:35 06:08:59 18° 302° (WNW) 06:12:22 435.822/435.867
LilacSat-2 26 May 06:06:28 06:08:56 16° 91° (E) 06:11:22 437.200
CUTE-I 26 May 06:15:52 06:19:50 21° 92° (E) 06:23:48 437.470
XW-2D 26 May 06:40:43 06:44:19 37° 97° (E) 06:47:54 145.860 - 145.880
XW-2B 26 May 06:48:33 06:52:16 44° 98° (E) 06:55:58 145.730 - 145.750
DOVE 4 26 May 06:51:08 06:55:18 86° 98° (E) 06:59:34 437.250
RS-15 26 May 07:00:30 07:11:05 31° 354° (N) 07:21:34 29.354- 29.394
XW-2F 26 May 07:01:33 07:05:23 62° 101° (ESE) 07:09:10 145.980 - 146.000
XW-2C 26 May 07:02:06 07:05:58 66° 101° (E) 07:09:47 145.795 - 145.815
NUDT-PHONESAT 26 May 07:02:35 07:06:17 50° 99° (E) 07:09:57 437.300
AO-7 26 May 07:02:43 07:08:44 23° 313° (NW) 07:14:46 .
KAITUO 1B 26 May 07:10:12 07:14:00 64° 101° (ESE) 07:17:45 145.475/437.950
BEESAT 2 26 May 07:11:30 07:15:26 62° 308° (NW) 07:19:29 435.950
SO-50 26 May 07:14:03 07:18:34 73° 52° (NE) 07:23:05 436.795
HO-68 26 May 07:24:15 07:30:12 27° 93° (E) 07:36:05 435.675
CUTE 1.7 + AOD 2 26 May 07:26:15 07:29:17 19° 92° (E) 07:32:18 437.475
STRAND 1 26 May 07:33:17 07:38:23 78° 257° (WSW) 07:43:32 437.568
BEESAT 3 26 May 07:34:31 07:37:30 20° 321° (NW) 07:40:31 437.485
LilacSat-2 26 May 07:39:43 07:43:25 42° 288° (WNW) 07:47:05 437.200
XW-2A 26 May 07:42:39 07:45:18 20° 94° (E) 07:47:57 145.665 - 145.685
